Weather History for Bedford, MA

Change the Weather History Date:

Wednesday, April 10, 2013

  Actual Average Record
Temperature  
Mean Temperature 54 °F -  
Max Temperature 62 °F 55 °F 72 °F (2008)
Min Temperature 45 °F 34 °F 19 °F (1985)
Degree Days  
Heating Degree Days 12    
Growing Degree Days 4 (Base 50)    
Moisture  
Dew Point 44 °F    
Average Humidity 80    
Maximum Humidity 97    
Minimum Humidity 56    
Precipitation  
Precipitation 0.20 in - - ()
Sea Level Pressure  
Sea Level Pressure 29.96 in    
Wind  
Wind Speed 4 mph (ENE)    
Max Wind Speed 10 mph    
Max Gust Speed -    
Visibility 9 miles    
Events Rain    
Averages and records for this station are not official NWS values.
T = Trace of Precipitation, MM = Missing Value Source: NWS Daily Summary

Daily Weather History Graph

Daily Weather History Graph

Search for Another Location

Airport:

Trip Planner

Search our weather history database for the weather conditions in past years. The results will help you decide how hot, cold, wet, or windy it might be!

Date:

Astronomy

Apr. 10, 2013 Rise Set
Actual Time 6:11 AM EDT 7:21 PM EDT
Civil Twilight 5:43 AM EDT 7:50 PM EDT
Nautical Twilight 5:08 AM EDT 8:25 PM EDT
Astronomical Twilight 4:32 AM EDT 9:01 PM EDT
Moon 6:05 AM EDT (4/10) 7:55 PM EDT (4/10)
Length of Visible Light 14h 07m
Length of Day
13h 09m
New Moon, 0% of the Moon is Illuminated
Apr 10
New Moon
Apr 18
First Quarter
Apr 25
Full
May 2
Last Quarter
May 9
New

Hourly Weather History & Observations

Time (EDT) Temp. Windchill Dew Point Humidity Pressure Visibility Wind Dir Wind Speed Gust Speed Precip Events Conditions
12:56 AM 46.9 °F - 39.9 °F 77% 29.99 in 10.0 mi SE 8.1 mph - N/A   Overcast
1:56 AM 46.9 °F - 39.9 °F 77% 30.00 in 10.0 mi ESE 3.5 mph - N/A   Overcast
2:56 AM 46.0 °F 44.8 °F 41.0 °F 83% 30.02 in 10.0 mi North 3.5 mph - 0.00 in Rain Light Rain
3:56 AM 45.0 °F 41.2 °F 43.0 °F 93% 29.98 in 10.0 mi SE 6.9 mph - 0.06 in Rain Light Rain
4:56 AM 45.0 °F 43.5 °F 43.0 °F 93% 29.96 in 10.0 mi SE 3.5 mph - 0.00 in   Overcast
5:56 AM 45.0 °F 43.5 °F 43.0 °F 93% 29.95 in 9.0 mi NNE 3.5 mph - N/A   Overcast
6:56 AM 45.0 °F 42.6 °F 44.1 °F 97% 29.98 in 6.0 mi NNW 4.6 mph - N/A   Overcast
7:56 AM 46.9 °F - 44.1 °F 90% 29.98 in 6.0 mi NNW 3.5 mph - N/A   Overcast
8:18 AM 46.4 °F - 44.6 °F 93% 29.94 in 8.0 mi Calm Calm - N/A   Overcast
8:42 AM 48.2 °F - 44.6 °F 87% 29.95 in 10.0 mi Calm Calm - N/A   Overcast
8:56 AM 48.0 °F - 44.1 °F 86% 29.99 in 10.0 mi Calm Calm - N/A   Overcast
9:14 AM 48.2 °F - 44.6 °F 87% 29.95 in 10.0 mi North 3.5 mph - N/A   Overcast
9:56 AM 50.0 °F - 45.0 °F 83% 30.00 in 10.0 mi North 5.8 mph - N/A   Overcast
10:03 AM 50.0 °F - 44.6 °F 82% 29.96 in 6.0 mi North 4.6 mph - N/A   Haze
10:56 AM 53.6 °F - 44.6 °F 72% 29.96 in 10.0 mi North 3.5 mph - N/A   Overcast
11:10 AM 51.8 °F - 44.6 °F 76% 29.96 in 10.0 mi NE 6.9 mph - N/A   Overcast
11:56 AM 53.1 °F - 44.1 °F 71% 30.00 in 10.0 mi Calm Calm - N/A   Overcast
12:40 PM 53.6 °F - 44.6 °F 72% 29.96 in 10.0 mi Variable 3.5 mph - N/A   Overcast
12:56 PM 55.9 °F - 45.0 °F 67% 30.00 in 10.0 mi Calm Calm - N/A   Overcast
1:56 PM 61.0 °F - 46.0 °F 58% 29.99 in 10.0 mi Variable 3.5 mph - N/A   Mostly Cloudy
2:56 PM 60.1 °F - 45.0 °F 57% 29.96 in 10.0 mi Calm Calm - N/A   Overcast
3:56 PM 62.1 °F - 46.0 °F 56% 29.90 in 10.0 mi Calm Calm - N/A   Mostly Cloudy
4:56 PM 57.9 °F - 44.1 °F 60% 29.93 in 10.0 mi East 10.4 mph - N/A   Overcast
5:56 PM 55.9 °F - 44.1 °F 64% 29.92 in 10.0 mi East 8.1 mph - N/A   Mostly Cloudy
6:56 PM 52.0 °F - 41.0 °F 66% 29.91 in 9.0 mi ESE 4.6 mph - 0.00 in Rain Light Rain
7:56 PM 48.0 °F - 45.0 °F 89% 29.92 in 7.0 mi NNE 6.9 mph - 0.04 in Rain Light Rain
8:56 PM 48.0 °F - 46.0 °F 93% 29.94 in 10.0 mi SE 4.6 mph - 0.10 in   Overcast
9:56 PM 48.9 °F - 46.9 °F 93% 29.92 in 10.0 mi ENE 4.6 mph - N/A   Overcast
10:56 PM 48.9 °F - 46.9 °F 93% 29.91 in 7.0 mi ENE 4.6 mph - N/A   Overcast
11:56 PM 48.0 °F - 46.0 °F 93% 29.93 in 7.0 mi ENE 3.5 mph - 0.00 in Rain Light Rain